STARLINK-11143, 59953

Orbit data source: Space-Track

STARLINK-11143, 59953 is a payload satellite owned by SpaceX/Seattle (US) in LEO that was launched on Wed, 05 Jun 2024 UTC via an FALCON 9 launch vehicle from the Air Force Eastern Test Range (AFETR). Payload-class satellites include a variety of spacecraft equipped with specific instruments for various scientific and technological missions. These include communications satellites like Starlink; space stations such as the ISS; scientific satellites like the Hubble; Earth observation satellites from companies like Planet Labs, Umbra, and HawkEye 360; GPS; miniature CubeSats for education and research; and military/defense satellites.

Loading next visibility...
Identifier
59953, 2024-107J
Orbit
LEO
Last TLE update
14 hours ago
Origin
Manufacturer
SpaceX/Seattle
Mission
Operational spacecraft
Bus & Motor
STARLINK V2M, Unknown motor
Mass
730 kg wet, ~700 kg dry
Launch date (UTC)
2024-06-05 (11 months ago)
Launch vehicle
FALCON 9
Launch site
Air Force Eastern Test Range (AFETR)
Object type
Payload
Rocket body
Debris
Shape & HBR
Unknown
Radar Cross Section
Large (>1 m²)

Expand to show TLE details & history

TLE from 14 hours ago
0 STARLINK-11143
1 59953U 24107J   25128.81880064  .00001906  00000-0  20570-4 0  9992
2 59953  53.1587 314.0781 0000478  73.6731 286.4339 15.69722381 54279
Epoch: 2025-05-08T19:39Z
Definitive object data (Epoch: 2025-05-08T19:39:04.375Z)
Latitude
-0.00005°
Longitude
152.426°
Altitude
360.515 km
Speed
7.694 km/s
True Right ascension
20h 56m 18s
True Declination
0° 00' 00"
Sunlit
Object was in daylight at TLE epoch
Visualization TLE readout
Latitude
27.84377°
Longitude
172.74365°
Altitude
360.807 km
Speed
7.697 km/s
Apparent Right ascension
01h 27m 29s
Apparent Declination
-8° 38' 19"
Sunlit
Object is in daylight
Visualization observer readout
Local Sidereal Time
17:42:36
Azimuth
79.455° E
Elevation
-25.557°
Doppler factor
1
Orbital elements
Apogee altitude
360.274 km
Perigee altitude
359.63 km
Semi-major axis
6,738.089 km
Eccentricity
0.0000478
Inclination
53.1587°
RAAN
314.0781°
Arg. of periapsis
73.6731°
True anomaly
286.42865°
Mean anomaly
286.4339°
Eccentric anomaly
286.43127°
Mean motion
3.92408 °/min
BSTAR
0.00002057
Orbital period
91.74 mins
Loading maneuver chart data...
Loading SW <> Apogee altitude chart data...
Loading historical data...
Loading historical data...
Loading historical data...
Loading historical data...
Loading historical data...
Loading historical data...
Loading historical data...

STARLINK-11143 Visibility forecast

Observer location: undefined°, undefined°

Span
Click to sort rows by Start time (UTC) header in descending order
Start Az.
Max El. time (UTC)
Max El. Az.
Max El.
End time (UTC)
End Az.
4 mins2025-05-09 22:09:15.343Z287.635° WNW2025-05-09 22:10:15.343Z257.676° W33.454°2025-05-09 22:13:15.343Z150.756° SSE
|